Glencoe, MN

2:32 PM CDT on September 20, 2017 (GMT -0500)
Glencoe Municipal

Weather History for KGYL - January, 2013

Change the Weather History Date:

Wednesday, January 23, 2013

  Actual Average (KHCD) Record (KHCD)
Temperature  
Mean Temperature 5 °F -  
Max Temperature 14 °F 26 °F 53 °F (1981)
Min Temperature -4 °F 4 °F -23 °F (1963)
Degree Days  
Heating Degree Days 60    
Moisture  
Dew Point -2 °F    
Average Humidity 72    
Maximum Humidity 90    
Minimum Humidity 56    
Precipitation  
Precipitation 0.00 in - - ()
Sea Level Pressure  
Sea Level Pressure 30.28 in    
Wind  
Wind Speed 4 mph (NW)    
Max Wind Speed 26 mph    
Max Gust Speed 34 mph    
Visibility 9 miles    
Events Snow    
Averages and records for this station are not official NWS values.
T = Trace of Precipitation, MM = Missing Value Source: NWS Daily Summary

Daily Weather History Graph

Daily Weather History Graph

Search for Another Location

Airport or City:

Trip Planner

Search our weather history database for the weather conditions in past years. The results will help you decide how hot, cold, wet, or windy it might be!

Date:

Astronomy

Jan. 23, 2013 Rise Set
Actual Time 7:44 AM CST 5:12 PM CST
Civil Twilight 7:12 AM CST 5:44 PM CST
Nautical Twilight 6:36 AM CST 6:20 PM CST
Astronomical Twilight 6:02 AM CST 6:54 PM CST
Moon 2:21 PM CST (1/23) 4:58 AM CST (1/23)
Length of Visible Light 10h 32m
Length of Day
9h 28m
Waxing Gibbous, 89% of the Moon is Illuminated
Jan 23
Waxing Gibbous
Jan 26
Full
Feb 3
Last Quarter
Feb 10
New
Feb 17
First Quarter

Hourly Weather History & Observations

Time (CST) Temp. Windchill Dew Point Humidity Pressure Visibility Wind Dir Wind Speed Gust Speed Precip Events Conditions
12:16 AM 7.2 °F - -0.4 °F 71% 30.21 in 10.0 mi Calm Calm - N/A   Overcast
12:36 AM 7.5 °F - -0.0 °F 71% 30.20 in 10.0 mi Calm Calm - N/A   Overcast
12:56 AM 7.5 °F - 0.5 °F 73% 30.19 in 7.0 mi Calm Calm - N/A   Overcast
1:16 AM 7.5 °F - 0.9 °F 74% 30.18 in 10.0 mi Calm Calm - N/A   Overcast
1:36 AM 7.7 °F - 1.4 °F 75% 30.17 in 10.0 mi Calm Calm - N/A Snow Light Snow
1:56 AM 7.7 °F - 1.9 °F 77% 30.17 in 10.0 mi Calm Calm - N/A Snow Light Snow
2:16 AM 8.1 °F - 2.3 °F 77% 30.17 in 5.0 mi Calm Calm - N/A Snow Light Snow
2:36 AM 8.1 °F - 2.3 °F 77% 30.17 in 7.0 mi Calm Calm - N/A Snow Light Snow
2:56 AM 8.2 °F - 3.0 °F 79% 30.16 in 7.0 mi Calm Calm - N/A Snow Light Snow
3:16 AM 8.4 °F - 3.6 °F 81% 30.16 in 5.0 mi Calm Calm - N/A Snow Light Snow
3:36 AM 8.4 °F - 3.7 °F 81% 30.15 in 3.0 mi Calm Calm - N/A Snow Light Snow
3:56 AM 8.6 °F - 4.1 °F 82% 30.15 in 4.0 mi Calm Calm - N/A Snow Light Snow
4:15 AM 8.6 °F - 4.5 °F 83% 30.15 in 4.0 mi Calm Calm - N/A Snow Light Snow
4:36 AM 8.6 °F - 4.8 °F 85% 30.13 in 3.0 mi Calm Calm - N/A Snow Light Snow
4:56 AM 8.6 °F - 5.0 °F 85% 30.13 in 5.0 mi Calm Calm - N/A Snow Light Snow
5:15 AM 8.6 °F - 5.0 °F 85% 30.12 in 5.0 mi Calm Calm - N/A Snow Light Snow
5:36 AM 8.8 °F - 5.4 °F 86% 30.12 in 5.0 mi Calm Calm - N/A Snow Light Snow
5:56 AM 9.0 °F - 5.7 °F 87% 30.13 in 7.0 mi Calm Calm - N/A Snow Light Snow
6:16 AM 9.1 °F - 5.9 °F 87% 30.13 in 4.0 mi Calm Calm - N/A Snow Light Snow
6:36 AM 8.6 °F - 5.7 °F 88% 30.13 in 7.0 mi Calm Calm - N/A   Overcast
6:56 AM 7.2 °F - 4.1 °F 87% 30.13 in 4.0 mi Calm Calm - N/A Snow Light Snow
7:16 AM 6.8 °F - 4.1 °F 89% 30.13 in 10.0 mi Calm Calm - N/A   Overcast
7:36 AM 6.3 °F - 3.6 °F 89% 30.14 in 10.0 mi Calm Calm - N/A Snow Light Snow
7:55 AM 3.7 °F - 1.0 °F 89% 30.14 in 10.0 mi Calm Calm - N/A   Clear
8:16 AM 5.5 °F - 3.2 °F 90% 30.14 in 10.0 mi Calm Calm - N/A   Scattered Clouds
8:35 AM 7.5 °F - 5.0 °F 89% 30.14 in 7.0 mi Calm Calm - N/A Snow Light Snow
8:56 AM 9.5 °F - 6.8 °F 89% 30.14 in 7.0 mi Calm Calm - N/A Snow Light Snow
9:16 AM 9.5 °F - 6.8 °F 89% 30.15 in 7.0 mi Calm Calm - N/A Snow Light Snow
9:36 AM 9.7 °F - 6.3 °F 86% 30.16 in 10.0 mi Calm Calm - N/A Snow Light Snow
9:56 AM 10.4 °F - 6.4 °F 84% 30.17 in 10.0 mi Calm Calm - N/A   Mostly Cloudy
10:16 AM 11.8 °F -1.5 °F 7.3 °F 82% 30.18 in 10.0 mi West 10.4 mph - N/A   Mostly Cloudy
10:36 AM 12.4 °F -2.3 °F 7.3 °F 80% 30.19 in 10.0 mi West 12.7 mph - N/A   Scattered Clouds
10:56 AM 12.7 °F - 7.3 °F 79% 30.20 in 10.0 mi Calm Calm - N/A   Scattered Clouds
11:16 AM 13.1 °F -1.4 °F 7.5 °F 78% 30.20 in 10.0 mi West 12.7 mph - N/A   Scattered Clouds
11:36 AM 14.0 °F -2.5 °F 7.3 °F 75% 30.20 in 10.0 mi WNW 17.3 mph 23.0 mph N/A   Clear
11:56 AM 14.0 °F -3.4 °F 6.3 °F 71% 30.20 in 10.0 mi WNW 19.6 mph 27.6 mph N/A   Scattered Clouds
12:16 PM 14.4 °F -3.0 °F 5.7 °F 69% 30.21 in 10.0 mi WNW 19.6 mph 24.2 mph N/A   Clear
12:36 PM 14.0 °F -3.9 °F 3.4 °F 63% 30.21 in 10.0 mi NW 20.7 mph 28.8 mph N/A   Clear
12:56 PM 13.6 °F -4.4 °F 2.3 °F 61% 30.20 in 10.0 mi NW 20.7 mph 28.8 mph N/A   Clear
1:15 PM 12.4 °F -6.0 °F 1.8 °F 63% 30.21 in 10.0 mi WNW 20.7 mph 26.5 mph N/A   Clear
1:36 PM 11.3 °F -7.9 °F 0.1 °F 61% 30.22 in 10.0 mi WNW 21.9 mph 32.2 mph N/A   Clear
1:56 PM 10.8 °F -10.2 °F -0.9 °F 59% 30.24 in 10.0 mi WNW 26.5 mph 32.2 mph N/A   Clear
2:16 PM 9.5 °F -11.1 °F -2.4 °F 59% 30.25 in 10.0 mi WNW 24.2 mph 32.2 mph N/A   Clear
2:36 PM 9.5 °F -10.7 °F -2.6 °F 58% 30.26 in 10.0 mi NW 23.0 mph 31.1 mph N/A   Clear
2:56 PM 8.6 °F -11.4 °F -2.9 °F 60% 30.28 in 10.0 mi NW 21.9 mph 29.9 mph N/A   Clear
3:16 PM 7.3 °F -13.1 °F -5.3 °F 56% 30.29 in 10.0 mi WNW 21.9 mph 34.5 mph N/A   Clear
3:35 PM 6.8 °F -14.3 °F -5.3 °F 58% 30.31 in 10.0 mi NW 23.0 mph 29.9 mph N/A   Clear
3:56 PM 5.9 °F -14.1 °F -5.8 °F 59% 30.32 in 10.0 mi NW 19.6 mph 28.8 mph N/A   Clear
4:16 PM 4.8 °F -16.0 °F -6.3 °F 60% 30.34 in 10.0 mi WNW 20.7 mph 27.6 mph N/A   Clear
4:36 PM 4.1 °F -15.3 °F -7.1 °F 60% 30.36 in 10.0 mi NW 17.3 mph 25.3 mph N/A   Clear
4:56 PM 3.2 °F -16.5 °F -7.8 °F 60% 30.38 in 10.0 mi WNW 17.3 mph 23.0 mph N/A   Clear
5:16 PM 2.1 °F -17.3 °F -8.3 °F 62% 30.39 in 10.0 mi WNW 16.1 mph 21.9 mph N/A   Clear
5:36 PM 1.4 °F -16.9 °F -8.5 °F 63% 30.41 in 10.0 mi NW 13.8 mph 20.7 mph N/A   Clear
5:56 PM 0.9 °F -18.3 °F -9.2 °F 63% 30.43 in 10.0 mi WNW 15.0 mph 19.6 mph N/A   Clear
6:16 PM 0.5 °F -13.6 °F -9.4 °F 63% 30.43 in 10.0 mi NW 8.1 mph 16.1 mph N/A   Clear
6:36 PM -0.0 °F -18.0 °F -9.9 °F 63% 30.44 in 10.0 mi NW 12.7 mph 19.6 mph N/A   Clear
6:56 PM -0.4 °F -15.7 °F -10.5 °F 62% 30.45 in 10.0 mi NW 9.2 mph 17.3 mph N/A   Clear
7:16 PM -0.9 °F - -10.5 °F 64% 30.46 in 10.0 mi Calm Calm - N/A   Clear
7:36 PM -1.3 °F - -10.5 °F 65% 30.47 in 10.0 mi Calm Calm - N/A   Clear
7:56 PM -1.7 °F - -10.3 °F 67% 30.48 in 10.0 mi Calm Calm - N/A   Clear
8:16 PM -1.7 °F - -11.2 °F 64% 30.49 in 10.0 mi Calm Calm - N/A   Clear
8:36 PM -1.8 °F - -11.6 °F 63% 30.50 in 10.0 mi Calm Calm - N/A   Clear
9:16 PM -3.1 °F - -11.6 °F 67% 30.52 in 10.0 mi Calm Calm - N/A   Clear
9:36 PM -2.4 °F - -13.0 °F 61% 30.52 in 10.0 mi Calm Calm - N/A   Clear
9:56 PM -2.4 °F -10.6 °F -14.6 °F 56% 30.53 in 10.0 mi North 3.5 mph 17.3 mph N/A   Clear
10:16 PM -3.1 °F - -13.9 °F 60% 30.55 in 10.0 mi Calm Calm - N/A   Clear
10:36 PM -3.3 °F - -14.1 °F 60% 30.55 in 10.0 mi Calm Calm - N/A   Clear
10:56 PM -3.5 °F - -14.8 °F 58% 30.56 in 10.0 mi Calm Calm - N/A   Clear
11:16 PM -4.0 °F - -15.0 °F 59% 30.57 in 10.0 mi Calm Calm - N/A   Clear
11:35 PM -4.2 °F - -15.3 °F 59% 30.58 in 10.0 mi Calm Calm - N/A   Clear
11:56 PM -4.4 °F - -15.2 °F 60% 30.58 in 10.0 mi Calm Calm - N/A   Clear